[[{"header":{"parameterUnit":"m.s-1","parameterCategory":1,"la1":30.2991,"la2":30.254,"lo1":-89.0895,"lo2":-89.0444,"dy":0.0017,"dx":0.0017,"nx":28,"ny":28,"refTime":"2025-02-04T03:00:00:Z","depth":0,"parameterNumber":2,"parameterNumberName":"U-component_of_WINDS"},"data":[0,0,0,0,0,0,0,0,0,0,0,0,0,0,0,0,0,0,0,0,0,0,0,0,0,0,0,0,0,0,0,0,0,0,0,0,0,0,0,0,0,0,0,0,0,0,0,0,0,0,0,0,0,0,0,0,0,0,-0.8832,-0.8832,0,-0.8819,-0.8819,-0.8819,-0.8787,-0.8786,-0.8785,-0.8785,-0.8772,-0.8772,-0.8773,0,0,0,0,0,0,0,0,0,0,0,0,0,-0.8829,-0.883,-0.8832,-0.8832,-0.8832,-0.8819,-0.8819,-0.8819,-0.8787,-0.8786,-0.8785,-0.8784,-0.8772,-0.8772,-0.8773,0,0,0,0,0,0,0,0,0,0,0,0,0,-0.8825,-0.883,-0.8832,-0.8814,-0.8813,-0.8819,-0.8819,-0.8819,-0.8787,-0.8786,-0.8785,-0.8784,-0.8772,-0.8772,-0.8773,-0.8796,0,0,-0.8774,-0.8774,0,0,0,0,0,0,0,0,-0.8825,-0.8825,-0.8817,-0.8816,-0.8814,-0.8804,-0.8813,-0.8811,-0.8787,-0.8797,-0.8785,-0.8783,-0.8783,-0.8783,-0.8783,-0.8795,-0.8795,-0.8774,-0.8774,-0.8775,-0.8775,0,0,0,0,0,0,0,-0.8826,-0.8826,-0.8827,-0.8817,-0.8815,-0.8807,-0.8805,-0.8813,-0.8796,-0.8796,-0.8793,-0.8792,-0.8782,-0.8782,-0.8782,-0.8795,-0.8774,-0.8774,-0.8775,-0.8775,-0.8825,-0.8826,0,0,0,0,0,0,-0.8829,-0.8826,-0.8828,-0.8827,-0.8817,-0.8808,-0.8806,-0.8808,-0.8796,-0.8793,-0.8793,-0.8791,-0.8782,-0.8782,-0.8782,-0.8807,-0.8775,-0.8775,-0.8775,-0.8824,-0.8825,-0.8826,0,0,0,0,0,0,-0.8829,-0.8829,-0.8828,-0.8826,-0.8825,-0.8809,-0.8811,-0.8808,-0.8808,-0.8794,-0.8791,-0.8796,-0.8781,-0.8781,-0.8792,-0.8806,-0.8775,-0.8776,-0.8823,-0.8824,-0.8826,-0.8859,0,0,0,0,0,0,-0.8829,-0.8829,-0.8838,-0.8826,-0.8825,-0.8839,-0.8812,-0.8809,-0.8809,-0.8806,-0.8796,-0.8793,-0.878,-0.8792,-0.8793,-0.8806,-0.8776,-0.8821,-0.8823,-0.8825,-0.8857,-0.8862,-0.8866,0,0,0,0,0,-0.8829,-0.8848,-0.8838,-0.8839,-0.8836,-0.884,-0.884,-0.8824,-0.881,-0.8819,-0.8809,-0.8794,-0.8805,-0.8793,-0.8794,-0.8808,-0.882,-0.8823,-0.8825,-0.8855,-0.8861,-0.8866,0,0,0,0,0,0,-0.8862,-0.8846,-0.8835,-0.8852,-0.8847,-0.8835,-0.8845,-0.8831,-0.8831,-0.8828,-0.8809,-0.8807,-0.8821,-0.8816,-0.8803,-0.8829,-0.881,-0.8813,-0.8832,-0.8838,-0.8842,-0.8843,-0.8776,0,0,0,0,0,-0.8872,-0.8876,-0.8862,-0.8878,-0.8876,-0.8861,-0.8862,-0.8851,-0.8846,-0.8844,-0.8835,-0.8831,-0.8833,-0.8835,-0.8837,-0.8856,-0.8853,-0.8866,-0.8871,-0.8874,-0.8877,-0.8885,-0.8891,-0.8834,-0.8834,-0.8834,0,0,-0.8891,-0.8883,-0.8887,-0.8884,-0.888,-0.8885,-0.886,-0.8867,-0.887,-0.8845,-0.8855,-0.8848,-0.8842,-0.8858,-0.8864,-0.8854,-0.8892,-0.8877,-0.8881,-0.8881,-0.8888,-0.8894,-0.8898,-0.8836,-0.8835,-0.8835,0,0,-0.8928,-0.8923,-0.8935,-0.8931,-0.8924,-0.8913,-0.8916,-0.8905,-0.89,-0.891,-0.8891,-0.8895,-0.89,-0.8896,-0.8895,-0.893,-0.8915,-0.8931,-0.8955,-0.8964,-0.8968,-0.8972,-0.8984,-0.8988,-0.8934,-0.8934,-0.8934,0,-0.8953,-0.896,-0.8943,-0.895,-0.895,-0.8927,-0.8939,-0.8935,-0.893,-0.8929,-0.8918,-0.8923,-0.8918,-0.8931,-0.894,-0.894,-0.8942,-0.8932,-0.8969,-0.8972,-0.8976,-0.8987,-0.8991,-0.8936,-0.8936,-0.8935,-0.8935,0,-0.899,-0.8995,-0.9006,-0.9,-0.9,-0.901,-0.8995,-0.8997,-0.8986,-0.8976,-0.8986,-0.8979,-0.8978,-0.898,-0.897,-0.8992,-0.8986,-0.8972,-0.8952,-0.8983,-0.8993,-0.8997,-0.8938,-0.8938,-0.8937,-0.8937,0,0,-0.9048,-0.9032,-0.9037,-0.9033,-0.9024,-0.9027,-0.9036,-0.9035,-0.9037,-0.9034,-0.904,-0.9044,-0.9031,-0.903,-0.9018,-0.9026,-0.9053,-0.9011,-0.9011,-0.9018,-0.9077,-0.9086,-0.9092,-0.9044,-0.9045,-0.9045,-0.9077,0,-0.9082,-0.9096,-0.908,-0.9097,-0.9101,-0.9079,-0.9087,-0.9082,-0.9073,-0.9075,-0.9066,-0.9069,-0.9052,-0.9051,-0.9058,-0.9049,-0.9065,-0.9046,-0.9049,-0.9049,-0.905,-0.9097,-0.9107,-0.9137,-0.9081,-0.9081,-0.9082,0,-0.9124,-0.9122,-0.9139,-0.9127,-0.9128,-0.9135,-0.9132,-0.9135,-0.9129,-0.9122,-0.912,-0.9106,-0.9114,-0.9095,-0.9105,-0.9092,-0.9093,-0.9088,-0.9089,-0.9088,-0.9067,-0.9096,-0.9147,-0.9151,-0.9088,-0.9088,-0.9087,0,-0.9163,-0.9165,-0.9175,-0.9173,-0.916,-0.9165,-0.916,-0.9153,-0.9153,-0.9151,-0.915,-0.915,-0.9149,-0.9148,-0.9134,-0.9122,-0.9145,-0.9125,-0.9139,-0.914,-0.9145,-0.9144,-0.9195,-0.9147,-0.9147,-0.9147,-0.9146,0,-0.9203,-0.9213,-0.9192,-0.9198,-0.9209,-0.9192,-0.9204,-0.9197,-0.919,-0.9194,-0.9176,-0.918,-0.9162,-0.9164,-0.9153,-0.9162,-0.9163,-0.9157,-0.9154,-0.9158,-0.9159,-0.9157,-0.9154,-0.9148,-0.9147,-0.9147,-0.9147,0,-0.9248,-0.9234,-0.9243,-0.923,-0.9227,-0.9236,-0.9225,-0.923,-0.922,-0.9226,-0.9226,-0.9211,-0.9213,-0.9199,-0.9198,-0.9191,-0.9205,-0.9199,-0.9207,-0.9204,-0.9219,-0.9217,-0.927,-0.9275,-0.9224,-0.9225,-0.9225,0,-0.9273,-0.9281,-0.9269,-0.927,-0.9266,-0.9268,-0.9268,-0.9251,-0.9251,-0.9244,-0.925,-0.925,-0.9249,-0.9253,-0.9242,-0.9241,-0.9234,-0.9253,-0.9234,-0.9238,-0.9233,-0.9232,-0.9233,-0.9256,-0.9257,-0.9257,-0.9258,0,-0.932,-0.9312,-0.9312,-0.931,-0.931,-0.9307,-0.9304,-0.9306,-0.9287,-0.9289,-0.929,-0.9289,-0.9288,-0.9288,-0.9285,-0.928,-0.9266,-0.9264,-0.9267,-0.9271,-0.9275,-0.9272,-0.9216,-0.9263,-0.9262,-0.9262,-0.9262,-0.9261,-0.9355,-0.936,-0.9352,-0.9353,-0.9348,-0.9345,-0.9348,-0.9339,-0.934,-0.9337,-0.9327,-0.933,-0.9323,-0.9317,-0.9314,-0.9315,-0.9306,-0.9311,-0.9312,-0.9313,-0.9315,-0.9275,-0.9315,-0.9315,-0.9315,-0.9315,-0.9314,0,-0.9399,-0.9393,-0.9394,-0.9388,-0.9389,-0.9375,-0.937,-0.9371,-0.9374,-0.9368,-0.9368,-0.9369,-0.9369,-0.9358,-0.9356,-0.936,-0.9353,-0.936,-0.9359,-0.9358,-0.9324,-0.9321,-0.9365,-0.9365,-0.9365,-0.9365,-0.9365,-0.9365,-0.9422,-0.943,-0.9422,-0.9427,-0.9421,-0.9423,-0.9421,-0.9418,-0.9413,-0.9415,-0.9415,-0.9408,-0.94,-0.9397,-0.9397,-0.9393,-0.9393,-0.9402,-0.9397,-0.9365,-0.936,-0.9355,-0.9352,-0.9402,-0.9402,-0.943,-0.943,-0.943]},{"header":{"parameterUnit":"m.s-1","parameterCategory":1,"la1":30.2991,"la2":30.254,"lo1":-89.0895,"lo2":-89.0444,"dy":0.0017,"dx":0.0017,"nx":28,"ny":28,"refTime":"2025-02-04T03:00:00:Z","depth":0,"parameterNumber":3,"parameterNumberName":"V-component_of_WINDS"},"data":[0,0,0,0,0,0,0,0,0,0,0,0,0,0,0,0,0,0,0,0,0,0,0,0,0,0,0,0,0,0,0,0,0,0,0,0,0,0,0,0,0,0,0,0,0,0,0,0,0,0,0,0,0,0,0,0,0,0,0.5542,0.5543,0,0.5593,0.5594,0.5594,0.5614,0.5614,0.5613,0.5613,0.5664,0.5666,0.5667,0,0,0,0,0,0,0,0,0,0,0,0,0,0.5462,0.5463,0.5542,0.5543,0.5544,0.5593,0.5594,0.5594,0.5614,0.5614,0.5613,0.5613,0.5664,0.5665,0.5667,0,0,0,0,0,0,0,0,0,0,0,0,0,0.5503,0.5464,0.5542,0.5559,0.5561,0.5593,0.5594,0.5595,0.5614,0.5614,0.5613,0.5613,0.5663,0.5665,0.5667,0.5686,0,0,0.5674,0.5675,0,0,0,0,0,0,0,0,0.5501,0.5506,0.5556,0.5558,0.5561,0.5597,0.5584,0.5625,0.5614,0.5594,0.5613,0.5613,0.5642,0.5646,0.5656,0.5688,0.569,0.5675,0.5676,0.5677,0.5677,0,0,0,0,0,0,0,0.5498,0.5504,0.5562,0.5557,0.556,0.5564,0.557,0.5592,0.5618,0.5596,0.5597,0.5603,0.5643,0.5654,0.5657,0.5691,0.5674,0.5676,0.5678,0.5679,0.574,0.5741,0,0,0,0,0,0,0.5492,0.5501,0.5561,0.5564,0.5529,0.5566,0.5572,0.5585,0.5618,0.5623,0.5603,0.5604,0.565,0.5654,0.5659,0.5683,0.5677,0.5679,0.568,0.574,0.574,0.5741,0,0,0,0,0,0,0.549,0.5497,0.5559,0.5533,0.5541,0.5567,0.5582,0.5586,0.5597,0.5624,0.5629,0.5609,0.565,0.5656,0.5679,0.5685,0.568,0.5682,0.574,0.574,0.5741,0.573,0,0,0,0,0,0,0.5488,0.5496,0.5504,0.5533,0.5543,0.5578,0.5583,0.5588,0.5601,0.5602,0.5631,0.5635,0.565,0.5675,0.5681,0.5688,0.5684,0.5739,0.574,0.5741,0.573,0.573,0.573,0,0,0,0,0,0.5485,0.5499,0.5504,0.5511,0.5552,0.5578,0.5584,0.5601,0.5601,0.5609,0.5626,0.5634,0.5683,0.5678,0.5684,0.5691,0.5739,0.574,0.574,0.573,0.573,0.573,0,0,0,0,0,0,0.5469,0.5503,0.5509,0.5533,0.5553,0.5582,0.5592,0.56,0.562,0.5621,0.5641,0.5647,0.5669,0.5682,0.5676,0.5711,0.5712,0.5714,0.5701,0.5701,0.5701,0.5698,0.5686,0,0,0,0,0,0.5468,0.5487,0.5515,0.5533,0.5543,0.5565,0.5577,0.5589,0.561,0.5619,0.5638,0.5658,0.5677,0.569,0.571,0.5732,0.5738,0.574,0.574,0.574,0.5741,0.5754,0.5755,0.5743,0.5743,0.5743,0,0,0.5467,0.5488,0.5498,0.5531,0.5547,0.5566,0.5572,0.5592,0.5606,0.5622,0.5645,0.5659,0.5683,0.5705,0.5716,0.5717,0.5746,0.5741,0.574,0.5742,0.5755,0.5756,0.5757,0.5744,0.5743,0.5743,0,0,0.5474,0.5492,0.5509,0.5525,0.5551,0.5566,0.557,0.5597,0.5608,0.5631,0.5643,0.566,0.5694,0.571,0.5723,0.5736,0.5744,0.5742,0.5742,0.5754,0.5755,0.5756,0.5761,0.5763,0.5743,0.5743,0.5743,0,0.5469,0.5498,0.5516,0.5535,0.5549,0.5564,0.5582,0.5597,0.5627,0.5636,0.5637,0.568,0.5697,0.5723,0.5727,0.5736,0.5741,0.5739,0.5754,0.5755,0.5756,0.5761,0.5763,0.5743,0.5743,0.5743,0.5743,0,0.5491,0.5511,0.5522,0.5551,0.5566,0.5584,0.5604,0.5617,0.5627,0.5642,0.5666,0.5687,0.5711,0.5718,0.5728,0.5746,0.5746,0.575,0.5751,0.5757,0.5762,0.5764,0.5742,0.5742,0.5742,0.5743,0,0,0.5491,0.553,0.5533,0.5547,0.5576,0.5591,0.5609,0.5634,0.5644,0.5664,0.5681,0.5709,0.5713,0.5727,0.5739,0.5749,0.5759,0.5752,0.5753,0.5753,0.578,0.5778,0.5779,0.5764,0.5764,0.5765,0.5778,0,0.5502,0.5537,0.5553,0.558,0.5599,0.5613,0.5629,0.5648,0.5662,0.568,0.5695,0.5715,0.5718,0.5727,0.5738,0.5755,0.5764,0.5754,0.5779,0.578,0.5774,0.5782,0.5779,0.5791,0.578,0.5781,0.5781,0,0.5521,0.5541,0.557,0.5597,0.5605,0.5619,0.5643,0.5659,0.5681,0.5691,0.5707,0.5718,0.5738,0.5737,0.5764,0.5757,0.5768,0.5778,0.5779,0.5782,0.5781,0.5786,0.5796,0.5798,0.5784,0.5784,0.5784,0,0.5518,0.5553,0.5575,0.5586,0.5617,0.5627,0.564,0.5662,0.5675,0.5695,0.5704,0.5726,0.5738,0.5755,0.5772,0.577,0.5798,0.5798,0.5806,0.5806,0.5812,0.5811,0.5824,0.5818,0.5818,0.5818,0.5818,0,0.553,0.5547,0.5574,0.5587,0.5607,0.5625,0.5644,0.5659,0.5678,0.5694,0.5707,0.5722,0.5743,0.5761,0.5774,0.5795,0.58,0.5808,0.5812,0.5808,0.5807,0.5816,0.5815,0.5818,0.5818,0.5818,0.5818,0,0.553,0.5549,0.5574,0.5602,0.5609,0.5622,0.5646,0.5659,0.5674,0.5694,0.57,0.5723,0.5744,0.5762,0.579,0.5799,0.5821,0.5825,0.5814,0.5816,0.5823,0.5822,0.5842,0.5845,0.5836,0.5836,0.5836,0,0.5537,0.5551,0.558,0.5592,0.5605,0.5625,0.5638,0.5657,0.567,0.5696,0.5707,0.5729,0.5748,0.5781,0.58,0.5821,0.5826,0.5831,0.5829,0.5825,0.5827,0.5826,0.5828,0.5832,0.5832,0.5832,0.5832,0,0.5547,0.5556,0.5575,0.5598,0.5614,0.5632,0.5651,0.566,0.5682,0.5697,0.5719,0.5734,0.5762,0.5784,0.5808,0.5821,0.583,0.5832,0.5835,0.5831,0.5825,0.5829,0.5815,0.5832,0.5832,0.5832,0.5832,0.5832,0.5552,0.5564,0.5587,0.5608,0.5624,0.5642,0.5656,0.5672,0.5691,0.5716,0.5725,0.5748,0.5769,0.5802,0.5815,0.5833,0.5834,0.5839,0.584,0.5841,0.584,0.5821,0.5837,0.5837,0.5837,0.5837,0.5837,0,0.5563,0.5578,0.5597,0.5623,0.564,0.5647,0.5668,0.5682,0.5701,0.5721,0.5739,0.5764,0.5786,0.5806,0.5828,0.5838,0.5843,0.5844,0.5843,0.5846,0.5838,0.5833,0.5839,0.5839,0.5839,0.5839,0.5839,0.5839,0.5571,0.5593,0.5604,0.5634,0.5649,0.5672,0.5683,0.5699,0.5715,0.5743,0.5761,0.5774,0.5793,0.5817,0.5837,0.5842,0.585,0.5849,0.5856,0.5847,0.5847,0.5847,0.5842,0.5851,0.5851,0.5863,0.5863,0.5864]}]]